View from above orbital plane
|
View from above satellite
|
Ground track
|
The orbit data is extracted from the following two-line orbital elements,
1 13403U 82079B 21112.89492955 .00001013 00000-0 64646-4 0 9990
2 13403 81.1657 98.2493 0033020 324.4595 35.4429 15.07377540108225
Epoch (UTC): | 22 April 2021 21:28:41 |
Eccentricity: | 0.0033020 |
inclination: | 81.1657° |
perigee height: | 521 km |
apogee height: | 567 km |
right ascension of ascending node: | 98.2493° |
argument of perigee: | 324.4595° |
revolutions per day: | 15.07377540 |
mean anomaly at epoch: | 35.4429° |
orbit number at epoch: | 10822 |
The dashed part of the orbit path shows where the satellite is in the earth's shadow,
|
|